(166595) = 2002 RE179

Discovered at Kitt Peak on 2002-09-14 by Spacewatch.

Orbit

Orbit type: Main Belt

Note: WebGL enabled browser required.

epoch2024-03-31.0
epoch JD2460400.5
perihelion date2021-09-30.19153
perihelion JD2459487.69153
argument of perihelion (°)19.44087
ascending node (°)314.75576
inclination (°)1.12164
eccentricity0.0715310
perihelion distance (AU)2.6552393
Tisserand w.r.t. Jupiter3.3
ΔV w.r.t. Earth (km/sec)10.2
semimajor axis (AU)2.8598040
mean anomaly (°)186.02834
mean daily motion (°/day)0.20379780
aphelion distance (AU)3.064
period (years)4.84
P-vector [x]0.90024791
P-vector [y]-0.40199808
P-vector [z]-0.16718628
Q-vector [x]0.43515570
Q-vector [y]0.81854357
Q-vector [z]0.37500125
absolute magnitude15.84
phase slope0.15
uncertainty0
referenceMPEC 2024-E179
observations used716
oppositions18
arc length (days)11046
first opposition used1993
last opposition used2024
residual rms (arc-secs)0.75
perturbers coarse indicatorM-v
perturbers precise indicator003Ek
first observation date used1993-12-08.0
last observation date used2024-03-06.0
computer nameMPCLINUX
JD of orbit computation2456760.846759
perihelion JD uncertainty (days)2.4134E-04
argument of perihelion uncertainty (°)3.3050E-04
ascending node uncertainty (°)3.2743E-04
inclination uncertainty (°)5.2917E-06
eccentricity uncertainty 9.6781E-08
perihelion distance uncertainty (AU)2.7012E-07
Minimum Orbit Intersection Distances (in AU)
for orbit epoch: 2460400.5, reference: E2024-GB3
Mercury2.24507
Venus1.92943
Earth1.64483
Mars1.27543
Jupiter2.18679
Saturn6.07041
Uranus15.3787
Neptune27.0328

Observations

724 total observations over interval: 1993 12 08.26404 – 2024 03 06.366819
These data are available for download (format description).

Date (UT) J2000 RA J2000 Dec Magn Location Ref
1993 12 08.26404 04 44 58.50 +23 50 27.1   691 – Steward Observatory, Kitt Peak-Spacewatch MPS 175700
1993 12 08.30165 04 44 56.21 +23 50 23.0   691 – Steward Observatory, Kitt Peak-Spacewatch MPS 175700
1993 12 08.33679 04 44 54.15 +23 50 18.6 19.7 V 691 – Steward Observatory, Kitt Peak-Spacewatch MPS 175700
1997 09 30.21766 22 55 12.11 -05 46 57.0 20.1 V 691 – Steward Observatory, Kitt Peak-Spacewatch MPS 178352
1997 09 30.23867 22 55 11.33 -05 47 01.2 19.8 V 691 – Steward Observatory, Kitt Peak-Spacewatch MPS 178352
1997 09 30.26973 22 55 10.16 -05 47 07.5 19.7 V 691 – Steward Observatory, Kitt Peak-Spacewatch MPS 178352
2000 03 10.25624 11 15 40.83 +03 45 59.7 19.4 V 691 – Steward Observatory, Kitt Peak-Spacewatch MPS 178352
2000 03 10.27721 11 15 39.78 +03 46 05.4 20.0 V 691 – Steward Observatory, Kitt Peak-Spacewatch MPS 178352
2000 03 10.30434 11 15 38.43 +03 46 13.4 20.0 V 691 – Steward Observatory, Kitt Peak-Spacewatch MPS 178352
2002 09 14.38956 00 26 37.61 +04 16 16.1 19.9 V 291 – LPL/Spacewatch II MPS 61807
2002 09 14.41304 00 26 36.54 +04 16 10.0 20.1 V 291 – LPL/Spacewatch II MPS 61807
2002 09 14.43620 00 26 35.51 +04 16 04.6 20.2 V 291 – LPL/Spacewatch II MPS 61807
2002 09 15.33234 00 25 56.37 +04 12 17.1 19.8 V 291 – LPL/Spacewatch II MPS 61807
2002 09 15.35946 00 25 55.11 +04 12 10.2 19.8 V 291 – LPL/Spacewatch II MPS 61807
2002 09 15.38722 00 25 53.83 +04 12 03.0 20.0 V 291 – LPL/Spacewatch II MPS 61807
2002 09 26.18731 00 17 29.79 +03 22 07.1 19.3   644 – Palomar Mountain/NEAT MPS 63603
2002 09 26.24957 00 17 26.70 +03 21 48.7 18.9   644 – Palomar Mountain/NEAT MPS 63603
2002 09 26.31642 00 17 23.37 +03 21 29.6 19.6   644 – Palomar Mountain/NEAT MPS 63603
2002 09 29.38399 00 14 55.78 +03 06 27.1 20.0   608 – Haleakala-AMOS MPS 63603
2002 09 29.39453 00 14 55.26 +03 06 23.5 20.2   608 – Haleakala-AMOS MPS 63603
2002 09 29.40542 00 14 54.71 +03 06 20.8 19.6   608 – Haleakala-AMOS MPS 63603
2002 09 30.27432 00 14 12.87 +03 02 03.7 19.0   704 – Lincoln Laboratory ETS, New Mexico MPS 63603
2002 09 30.28848 00 14 12.18 +03 01 59.0 19.4   704 – Lincoln Laboratory ETS, New Mexico MPS 63603
2002 09 30.30282 00 14 11.50 +03 01 55.9 19.7   704 – Lincoln Laboratory ETS, New Mexico MPS 63603
2002 09 30.31711 00 14 10.83 +03 01 50.3 19.4   704 – Lincoln Laboratory ETS, New Mexico MPS 63603
2002 09 30.33133 00 14 10.07 +03 01 46.4 19.4   704 – Lincoln Laboratory ETS, New Mexico MPS 63603
2002 10 03.25105 00 11 51.50 +02 47 26.3 19.5   704 – Lincoln Laboratory ETS, New Mexico MPS 63603
2002 10 03.26644 00 11 50.71 +02 47 21.9 19.5   704 – Lincoln Laboratory ETS, New Mexico MPS 63603
2002 10 03.28188 00 11 49.93 +02 47 16.6 19.8   704 – Lincoln Laboratory ETS, New Mexico MPS 63603
2002 10 03.31284 00 11 48.46 +02 47 08.9 19.7   704 – Lincoln Laboratory ETS, New Mexico MPS 63603
2002 10 11.24210 00 05 51.13 +02 09 32.1 19.5   704 – Lincoln Laboratory ETS, New Mexico MPS 63603
2002 10 11.25779 00 05 50.47 +02 09 27.6 19.4   704 – Lincoln Laboratory ETS, New Mexico MPS 63603
2002 10 11.27365 00 05 49.71 +02 09 22.7 20.1   704 – Lincoln Laboratory ETS, New Mexico MPS 63603
2002 10 11.28938 00 05 49.10 +02 09 17.9 20.0   704 – Lincoln Laboratory ETS, New Mexico MPS 63603
2002 10 11.30528 00 05 48.38 +02 09 13.0 20.2   704 – Lincoln Laboratory ETS, New Mexico MPS 63603
2002 10 30.202370 23 55 34.323 +01 01 30.98 20.37 V 645 – Apache Point-Sloan Digital Sky Survey MPS 80119
2002 10 30.205842 23 55 34.244 +01 01 30.46 21.13   645 – Apache Point-Sloan Digital Sky Survey MPS 80119
2002 10 31.18635 23 55 14.60 +00 59 12.4 20.2   704 – Lincoln Laboratory ETS, New Mexico MPS 65947
2002 10 31.20356 23 55 14.18 +00 59 09.4 20.1   704 – Lincoln Laboratory ETS, New Mexico MPS 65947
2002 10 31.22082 23 55 13.84 +00 59 08.5 20.2   704 – Lincoln Laboratory ETS, New Mexico MPS 65947
2002 10 31.23792 23 55 13.45 +00 59 04.9 19.9   704 – Lincoln Laboratory ETS, New Mexico MPS 65947
2005 03 01.38279 12 19 02.69 -03 14 53.2 20.3 V 691 – Steward Observatory, Kitt Peak-Spacewatch MPS 131637
2005 03 01.40885 12 19 01.67 -03 14 47.2 20.5 V 691 – Steward Observatory, Kitt Peak-Spacewatch MPS 131637
2005 03 01.43430 12 19 00.66 -03 14 41.2 20.6 V 691 – Steward Observatory, Kitt Peak-Spacewatch MPS 131637
2005 04 04.29903 11 53 28.10 -00 38 42.9 19.9 R 703 – Catalina Sky Survey MPS 130700
2005 04 04.30710 11 53 27.85 -00 38 39.7 19.5 R 703 – Catalina Sky Survey MPS 130700
2005 04 04.31523 11 53 27.42 -00 38 38.8 20.5 R 703 – Catalina Sky Survey MPS 130700
2005 04 04.32336 11 53 27.02 -00 38 36.8 19.4 R 703 – Catalina Sky Survey MPS 130700
2005 04 05.29583 11 52 44.85 -00 34 06.5 20.1 R G96 – Mt. Lemmon Survey MPS 130700
2005 04 05.30177 11 52 44.57 -00 34 04.6 19.6 R G96 – Mt. Lemmon Survey MPS 130700
2005 04 05.30772 11 52 44.30 -00 34 02.9 19.8 R G96 – Mt. Lemmon Survey MPS 130700
2005 04 05.31365 11 52 44.03 -00 34 01.1 18.5 R G96 – Mt. Lemmon Survey MPS 130700
2007 09 13.28918 01 39 12.00 +11 49 47.7 19.7   704 – Lincoln Laboratory ETS, New Mexico MPS 216081
2007 09 13.32386 01 39 11.15 +11 49 43.0 20.2   704 – Lincoln Laboratory ETS, New Mexico MPS 216081
2007 09 13.33551 01 39 10.78 +11 49 41.5 20.4   704 – Lincoln Laboratory ETS, New Mexico MPS 216081
2007 09 14.37438 01 38 43.83 +11 47 44.5 19.9 V G96 – Mt. Lemmon Survey MPS 216081
2007 09 14.37992 01 38 43.69 +11 47 43.8 20.0 V G96 – Mt. Lemmon Survey MPS 216081
2007 09 14.38551 01 38 43.54 +11 47 43.5 20.0 V G96 – Mt. Lemmon Survey MPS 216081
2007 09 14.39102 01 38 43.40 +11 47 42.9 20.0 V G96 – Mt. Lemmon Survey MPS 216081
2007 09 20.32604 01 35 41.92 +11 33 45.1 20.5 V 703 – Catalina Sky Survey MPS 216081
2007 09 20.33314 01 35 41.67 +11 33 43.7 19.8 V 703 – Catalina Sky Survey MPS 216081
2007 09 20.34029 01 35 41.46 +11 33 44.8 20.2 V 703 – Catalina Sky Survey MPS 216081
2007 09 20.34742 01 35 41.17 +11 33 41.4 20.8 V 703 – Catalina Sky Survey MPS 216081
2007 10 04.25236 01 26 07.16 +10 44 27.7   691 – Steward Observatory, Kitt Peak-Spacewatch MPS 218064
2007 10 04.26998 01 26 06.36 +10 44 22.5   691 – Steward Observatory, Kitt Peak-Spacewatch MPS 218064
2007 10 04.28759 01 26 05.51 +10 44 17.9   691 – Steward Observatory, Kitt Peak-Spacewatch MPS 218064
2007 10 06.25473 01 24 32.24 +10 35 48.6 19.3   704 – Lincoln Laboratory ETS, New Mexico MPS 218533
2007 10 06.26553 01 24 31.64 +10 35 45.5 19.7   704 – Lincoln Laboratory ETS, New Mexico MPS 218533
2007 10 06.27674 01 24 31.15 +10 35 42.9 19.6   704 – Lincoln Laboratory ETS, New Mexico MPS 218533
2007 10 06.28754 01 24 30.58 +10 35 39.8 20.0   704 – Lincoln Laboratory ETS, New Mexico MPS 218533
2007 10 06.29834 01 24 30.16 +10 35 37.5 20.5   704 – Lincoln Laboratory ETS, New Mexico MPS 218533
2007 10 10.32623 01 21 13.78 +10 17 23.5 19.4 V G96 – Mt. Lemmon Survey MPS 218533
2007 10 10.33368 01 21 13.39 +10 17 21.6 19.5 V G96 – Mt. Lemmon Survey MPS 218533
2007 10 10.34118 01 21 12.99 +10 17 19.6 19.5 V G96 – Mt. Lemmon Survey MPS 218533
2007 10 10.34862 01 21 12.63 +10 17 17.5 19.5 V G96 – Mt. Lemmon Survey MPS 218533
2007 10 10.64283 01 20 58.22 +10 15 55.8 19.2 R D29 – Purple Mountain Observatory, XuYi Station MPS 218533
2007 10 10.65945 01 20 57.37 +10 15 51.0 19.1 R D29 – Purple Mountain Observatory, XuYi Station MPS 218533
2007 10 10.67989 01 20 56.35 +10 15 45.1 18.7 R D29 – Purple Mountain Observatory, XuYi Station MPS 218533
2007 10 10.69842 01 20 55.37 +10 15 40.2 19.2 R D29 – Purple Mountain Observatory, XuYi Station MPS 218533
2007 10 11.25355 01 20 28.07 +10 13 04.9 19.4   704 – Lincoln Laboratory ETS, New Mexico MPS 220324
2007 10 11.26476 01 20 27.44 +10 13 01.4 19.4   704 – Lincoln Laboratory ETS, New Mexico MPS 220324
2007 10 11.27579 01 20 26.89 +10 12 58.7 20.1   704 – Lincoln Laboratory ETS, New Mexico MPS 220324
2007 10 11.28694 01 20 26.32 +10 12 56.2 20.3   704 – Lincoln Laboratory ETS, New Mexico MPS 220324
2007 10 11.29799 01 20 25.78 +10 12 52.0 20.0   704 – Lincoln Laboratory ETS, New Mexico MPS 220324
2007 10 13.25032 01 18 49.03 +10 03 39.6 19.0 V 703 – Catalina Sky Survey MPS 220324
2007 10 13.25743 01 18 48.70 +10 03 38.2 19.1 V 703 – Catalina Sky Survey MPS 220324
